Stations météo

réclame
Mon MeteoGroup
Aachen-Orsbach, Allemagne (10505): Température de l'air & dewpoint: 13.07.2019 21:00:00 - 19.07.2019 21:00:00 (CEST)Aachen-Orsbach, Allemagne (10505): Température de l'air 5cm & Température de l'air -5cm: 13.07.2019 21:00:00 - 19.07.2019 21:00:00 (CEST)Aachen-Orsbach, Allemagne (10505): Température de l'air -20cm & Température de l'air -100cm: 13.07.2019 21:00:00 - 19.07.2019 21:00:00 (CEST)Aachen-Orsbach, Allemagne (10505): Vitesse du vent & gusts: 13.07.2019 21:00:00 - 19.07.2019 21:00:00 (CEST)Aachen-Orsbach, Allemagne (10505): Direction du vent: 13.07.2019 21:00:00 - 19.07.2019 21:00:00 (CEST)Aachen-Orsbach, Allemagne (10505): reduced air pressure: 13.07.2019 21:00:00 - 19.07.2019 21:00:00 (CEST)Aachen-Orsbach, Allemagne (10505): visibility: 13.07.2019 21:00:00 - 19.07.2019 21:00:00 (CEST)Aachen-Orsbach, Allemagne (10505): Ensoleillement: 13.07.2019 21:00:00 - 19.07.2019 21:00:00 (CEST)Aachen-Orsbach, Allemagne (10505): Quantités de précipitations: 13.07.2019 21:00:00 - 19.07.2019 21:00:00 (CEST)
Date & Time tt [°C] td [°C] tt 5cm [°C] tt -5cm [°C] tt -20cm [°C] tt -100cm [°C] ff [km/h] ff [knt] fx [km/h] fx [knt] dd ppp [hPa] vv [km] sd [min] rr [mm]
19.07.2019 21:00:00 - - - - - - - - - - - - - - -
19.07.2019 20:00:00 22,5 11,2 23,0 26,2 22,0 16,9 11 6 23 12 SW 1013,4 65 22 0,0
19.07.2019 19:00:00 23,4 10,8 24,7 27,4 21,7 16,9 16 9 25 14 SW 1013,4 71 48 0,0
19.07.2019 18:00:00 24,0 10,5 28,0 27,9 21,3 16,9 13 7 26 14 SW 1013,5 73 55 0,0
19.07.2019 17:00:00 23,8 10,1 28,2 27,7 20,9 16,9 15 8 28 15 WSW 1013,8 64 30 0,0
19.07.2019 16:00:00 23,1 11,0 27,5 27,8 20,5 16,9 14 8 25 14 WSW 1014,1 75 29 0,0
19.07.2019 15:00:00 22,7 11,7 28,3 27,0 20,1 16,9 13 7 27 14 W 1014,3 59 28 0,0
19.07.2019 14:00:00 22,5 11,3 27,0 26,6 19,7 16,9 13 7 32 18 WSW 1014,2 67 57 0,0
19.07.2019 13:00:00 20,5 11,7 24,8 23,7 19,6 16,9 17 9 29 16 WSW 1014,5 61 29 0,0
19.07.2019 12:00:00 19,7 12,8 22,6 21,6 19,5 16,9 16 9 26 14 WSW 1014,7 66 1 0,0
19.07.2019 11:00:00 18,5 12,6 20,6 20,3 19,4 16,9 18 10 26 14 WSW 1014,7 55 1 0,0
19.07.2019 10:00:00 17,5 12,9 17,7 19,2 19,5 16,9 15 8 22 12 SW 1014,6 48 3 0,0
19.07.2019 09:00:00 16,7 13,2 17,3 18,4 19,6 16,9 13 7 23 12 W 1014,3 51 1 0,0
19.07.2019 08:00:00 16,4 15,4 16,5 18,2 19,7 16,9 11 6 17 9 SW 1014,1 18 0 0,0
19.07.2019 07:00:00 16,1 15,5 16,0 18,1 19,9 16,9 10 6 16 9 SW 1013,6 12 0 0,0
19.07.2019 06:00:00 15,9 15,3 15,5 18,1 20,1 16,9 9 5 16 8 SSW 1013,7 15 0 0,0
19.07.2019 05:00:00 15,9 15,1 15,5 18,4 20,3 16,9 10 6 18 10 SSW 1013,7 24 0 0,1
19.07.2019 04:00:00 15,9 15,1 15,5 18,7 20,4 16,9 9 5 17 9 SSW 1013,6 25 0 0,0
19.07.2019 03:00:00 15,9 14,9 15,5 19,2 20,6 16,9 11 6 18 10 SSW 1013,6 30 0 0,9
19.07.2019 02:00:00 17,1 13,6 17,0 19,6 20,8 16,9 11 6 16 9 SSW 1013,5 54 0 0,0
19.07.2019 01:00:00 16,9 13,4 16,8 20,0 20,9 16,9 9 5 13 7 SSW 1013,3 57 0 0,0
19.07.2019 00:00:00 17,9 13,4 17,5 20,6 21,1 16,9 8 5 32 17 SW 1013,1 58 0 0,0
18.07.2019 23:00:00 18,6 13,4 18,6 21,2 21,2 16,9 18 10 31 17 W 1013,1 55 0 0,0
18.07.2019 22:00:00 19,6 12,6 19,3 21,9 21,3 16,9 19 10 33 18 W 1012,5 52 0 0,0
18.07.2019 21:00:00 20,0 13,0 20,0 22,9 21,3 16,9 12 6 21 11 WSW 1011,9 54 0 0,0
18.07.2019 20:00:00 20,7 13,0 21,5 24,0 21,2 16,9 11 6 27 15 W 1011,6 67 0 0,0
18.07.2019 19:00:00 21,7 11,2 23,4 24,8 21,1 16,9 21 11 31 17 W 1011,5 67 12 0,0
18.07.2019 18:00:00 22,2 12,2 24,7 25,1 20,9 16,9 18 10 27 15 WNW 1011,2 68 0 0,0
18.07.2019 17:00:00 22,9 11,8 25,0 25,8 20,7 17,0 21 11 35 19 WSW 1011,1 65 0 0,0
18.07.2019 16:00:00 23,5 12,3 26,2 26,2 20,3 17,0 16 9 32 18 WSW 1011,1 54 0 0,0
18.07.2019 15:00:00 23,6 11,7 26,3 26,6 19,9 17,0 16 9 35 19 SW 1011,0 51 6 0,0
18.07.2019 14:00:00 22,5 12,5 27,3 26,3 19,5 17,0 16 9 34 18 W 1011,3 61 5 0,0
18.07.2019 13:00:00 23,0 11,4 27,3 27,1 19,0 17,0 21 12 32 18 WSW 1011,4 43 51 0,0
18.07.2019 12:00:00 22,6 11,3 28,5 24,9 18,7 17,0 16 9 27 14 WSW 1011,4 39 60 0,0
18.07.2019 11:00:00 21,5 11,4 26,5 22,5 18,5 17,0 17 9 26 14 W 1011,5 27 60 0,0
18.07.2019 10:00:00 20,1 11,2 24,2 19,9 18,5 17,0 16 9 26 14 WSW 1011,7 26 53 0,0
18.07.2019 09:00:00 18,1 11,1 21,9 18,1 18,6 17,0 16 9 22 12 W 1011,8 21 54 0,0
18.07.2019 08:00:00 17,6 10,1 18,1 16,3 18,8 17,0 11 6 19 10 S 1011,6 40 24 0,0
18.07.2019 07:00:00 14,1 10,7 13,7 15,6 19,1 17,0 13 7 17 9 SSE 1011,9 20 0 0,0
18.07.2019 06:00:00 12,5 10,2 10,8 15,9 19,3 17,0 9 5 12 7 SE 1012,1 15 0 0,0
18.07.2019 05:00:00 12,7 10,6 11,5 16,5 19,6 17,0 9 5 11 6 ESE 1012,3 11 0 0,0
18.07.2019 04:00:00 14,6 11,0 11,3 17,0 19,9 17,0 5 3 10 5 ESE 1012,8 14 0 0,0
18.07.2019 03:00:00 13,6 11,4 12,7 17,4 20,2 17,0 8 5 10 5 SE 1013,1 11 0 0,0
18.07.2019 02:00:00 14,2 10,9 12,1 17,8 20,5 17,0 6 3 9 5 ESE 1013,3 15 0 0,0
18.07.2019 01:00:00 14,0 10,9 12,0 18,5 20,8 17,1 7 4 12 6 ESE 1013,4 14 0 0,0
18.07.2019 00:00:00 13,6 10,9 10,8 19,6 21,0 17,1 10 5 12 7 SE 1013,7 15 0 0,0
17.07.2019 23:00:00 14,3 11,3 12,5 20,9 21,2 17,1 9 5 13 7 SE 1013,8 19 0 0,0
17.07.2019 22:00:00 17,7 11,1 14,0 22,6 21,3 17,1 6 4 9 5 E 1013,6 35 0 0,0
17.07.2019 21:00:00 18,7 11,3 15,9 24,6 21,1 17,1 4 2 6 3 E 1013,5 38 17 0,0
17.07.2019 20:00:00 21,0 10,1 21,0 26,4 20,9 17,1 5 3 16 8 NNE 1013,3 55 47 0,0
17.07.2019 19:00:00 21,6 10,6 23,1 28,0 20,4 17,1 9 5 18 10 NNE 1013,4 55 60 0,0
17.07.2019 18:00:00 21,8 10,8 24,8 29,0 19,8 17,1 13 7 27 14 NNE 1013,9 29 45 0,0
17.07.2019 17:00:00 21,6 10,5 28,7 29,9 19,2 17,1 10 5 19 10 N 1014,4 29 59 0,0
17.07.2019 16:00:00 21,7 11,1 28,3 29,3 18,4 17,1 5 3 23 12 N 1014,5 20 51 0,0
17.07.2019 15:00:00 21,0 11,0 26,7 28,9 17,7 17,1 10 6 20 11 N 1014,8 20 60 0,0
17.07.2019 14:00:00 19,8 10,7 27,5 27,1 17,1 17,1 6 3 17 9 NNW 1015,5 19 60 0,0
17.07.2019 13:00:00 18,4 10,6 28,1 24,5 16,6 17,1 7 4 14 8 NNW 1015,9 15 56 0,0
17.07.2019 12:00:00 18,4 10,8 23,7 20,9 16,3 17,1 6 4 14 8 E 1016,0 15 33 0,0
17.07.2019 11:00:00 16,8 11,3 20,4 17,7 16,2 17,2 6 3 10 5 NE 1016,2 14 0 0,0
17.07.2019 10:00:00 15,4 11,7 17,3 16,0 16,1 17,2 4 2 8 4 ENE 1016,4 11 0 0,0
17.07.2019 09:00:00 14,9 11,3 16,2 14,3 16,2 17,2 2 1 5 3 E 1016,4 9 0 0,0
17.07.2019 08:00:00 13,3 11,4 12,5 12,8 16,5 17,2 0 0 3 2 N 1016,4 6 26 0,0
17.07.2019 07:00:00 11,0 9,9 9,0 11,7 16,7 17,2 3 2 5 3 SW 1016,8 6 0 0,0
17.07.2019 06:00:00 10,2 9,3 5,8 11,8 17,0 17,2 5 3 6 4 SE 1016,9 7 0 0,0
17.07.2019 05:00:00 9,7 9,0 5,8 12,2 17,3 17,2 4 2 5 3 SE 1017,0 6 0 0,0
17.07.2019 04:00:00 9,9 8,6 6,0 12,7 17,6 17,2 3 2 4 2 WSW 1017,4 9 0 0,0
17.07.2019 03:00:00 10,3 9,0 6,3 13,3 17,8 17,2 3 2 4 2 SW 1017,6 10 0 0,0
17.07.2019 02:00:00 10,5 9,5 6,7 14,0 18,1 17,2 4 2 6 3 SSW 1017,7 12 0 0,0
17.07.2019 01:00:00 10,7 9,1 7,2 14,9 18,4 17,2 3 2 6 4 SW 1018,0 13 0 0,0
17.07.2019 00:00:00 11,3 9,5 7,9 15,9 18,6 17,2 0 0 3 1 N 1018,0 15 0 0,0
16.07.2019 23:00:00 11,4 9,5 8,9 17,3 18,7 17,2 2 1 5 3 SW 1018,2 15 0 0,0
16.07.2019 22:00:00 12,9 10,3 10,8 19,0 18,6 17,2 3 2 5 3 WSW 1018,1 18 10 0,0
16.07.2019 21:00:00 17,0 10,8 16,2 20,6 18,5 17,3 3 2 12 6 WNW 1017,8 23 60 0,0
16.07.2019 20:00:00 16,8 10,2 18,1 21,6 18,2 17,3 8 4 14 8 NW 1017,8 22 27 0,0
16.07.2019 19:00:00 17,2 10,7 19,6 22,8 17,8 17,3 8 5 17 9 NW 1018,0 20 57 0,0
16.07.2019 18:00:00 17,6 10,3 22,7 23,2 17,4 17,3 7 4 16 9 WNW 1018,1 21 60 0,0
16.07.2019 17:00:00 16,9 9,7 22,9 22,2 17,1 17,3 8 4 17 9 WNW 1018,7 23 39 0,0
16.07.2019 16:00:00 16,4 10,2 20,8 20,3 16,9 17,3 8 5 16 9 W 1019,2 28 2 0,0
16.07.2019 15:00:00 15,4 9,9 19,2 18,8 16,7 17,3 9 5 16 9 W 1019,4 23 0 0,0
16.07.2019 14:00:00 14,4 9,7 17,7 18,0 16,6 17,3 11 6 16 9 WNW 1019,8 29 0 0,0
16.07.2019 13:00:00 14,4 9,4 17,4 17,3 16,5 17,3 11 6 17 9 W 1019,9 37 0 0,0
16.07.2019 12:00:00 14,0 9,4 17,6 16,6 16,4 17,3 8 4 16 9 WNW 1020,0 45 0 0,0
16.07.2019 11:00:00 13,9 9,1 16,4 15,6 16,4 17,3 11 6 16 9 WNW 1020,1 60 0 0,0
16.07.2019 10:00:00 13,4 9,3 15,1 15,1 16,4 17,3 9 5 16 9 W 1020,2 39 0 0,0
16.07.2019 09:00:00 13,2 10,1 14,0 14,5 16,5 17,3 5 3 8 4 W 1020,0 32 0 0,0
16.07.2019 08:00:00 12,4 11,0 12,9 14,0 16,6 17,3 4 2 7 4 SSW 1020,1 11 0 0,0
16.07.2019 07:00:00 11,6 10,9 11,9 13,4 16,7 17,3 3 2 5 3 W 1019,9 8 0 0,0
16.07.2019 06:00:00 11,1 10,4 9,2 13,7 16,8 17,4 4 2 5 3 NW 1019,7 7 0 0,0
16.07.2019 05:00:00 11,6 10,6 10,7 14,0 17,0 17,4 2 1 5 3 E 1019,6 8 0 0,0
16.07.2019 04:00:00 12,0 10,7 11,5 14,2 17,1 17,4 4 2 11 6 N 1019,9 9 0 0,0
16.07.2019 03:00:00 12,7 10,8 12,3 14,6 17,2 17,4 7 4 15 8 N 1020,0 32 0 0,0
16.07.2019 02:00:00 13,3 10,8 13,0 14,9 17,3 17,4 10 6 18 10 NW 1020,1 47 0 0,0
16.07.2019 01:00:00 13,8 10,9 13,3 15,3 17,4 17,4 7 4 15 8 NW 1019,9 46 0 0,0
16.07.2019 00:00:00 14,0 10,2 13,6 15,6 17,5 17,4 7 4 10 6 WNW 1020,0 36 0 0,0
15.07.2019 23:00:00 14,1 10,3 13,2 15,9 17,5 17,4 4 2 8 4 WNW 1020,0 42 0 0,0
15.07.2019 22:00:00 14,8 9,0 14,0 16,3 17,6 17,4 4 2 11 6 NNW 1019,9 51 0 0,0
15.07.2019 21:00:00 15,2 9,0 15,1 17,0 17,5 17,4 8 5 13 7 NNW 1019,7 49 0 0,0
15.07.2019 20:00:00 15,5 10,4 16,3 17,5 17,5 17,4 7 4 14 7 WNW 1019,7 34 0 0,0
15.07.2019 19:00:00 15,7 11,1 17,5 17,6 17,4 17,4 7 4 15 8 W 1019,8 33 0 0,0
15.07.2019 18:00:00 15,4 10,6 17,6 17,2 17,4 17,4 9 5 16 9 NNW 1020,2 33 0 0,0
15.07.2019 17:00:00 14,8 10,4 15,9 17,4 17,3 17,4 11 6 16 9 NW 1020,5 37 0 0,0
15.07.2019 16:00:00 14,8 10,2 16,8 18,0 17,2 17,4 9 5 13 7 WNW 1020,4 34 0 0,0
15.07.2019 15:00:00 14,5 10,0 16,4 17,6 17,1 17,4 11 6 17 9 NW 1020,4 28 0 0,0
15.07.2019 14:00:00 14,5 9,5 17,9 17,6 17,0 17,4 8 4 17 9 WNW 1020,4 39 0 0,0
15.07.2019 13:00:00 14,3 9,3 16,7 16,8 16,9 17,4 8 4 16 9 NNW 1020,5 45 0 0,0
15.07.2019 12:00:00 14,0 8,5 16,4 16,1 16,8 17,4 9 5 16 9 NNW 1020,4 73 0 0,0
15.07.2019 11:00:00 13,3 8,5 14,4 15,7 16,8 17,5 11 6 17 9 N 1020,7 44 0 0,0
15.07.2019 10:00:00 13,2 8,3 14,1 15,5 16,8 17,5 9 5 19 10 N 1020,5 51 0 0,0
15.07.2019 09:00:00 12,3 10,1 13,7 14,4 16,9 17,5 4 2 8 4 WNW 1020,5 23 0 0,0
15.07.2019 08:00:00 11,3 10,4 11,9 13,4 17,1 17,5 4 2 7 4 W 1020,5 10 0 0,0
15.07.2019 07:00:00 11,0 10,3 11,2 12,6 17,3 17,5 4 2 9 5 WNW 1020,2 10 0 0,0
15.07.2019 06:00:00 9,6 9,0 6,7 12,5 17,6 17,5 4 2 10 5 NNW 1020,3 13 0 0,0
15.07.2019 05:00:00 10,6 9,7 9,1 13,0 17,8 17,5 8 4 12 7 N 1019,9 13 0 0,0
15.07.2019 04:00:00 10,8 9,6 9,1 13,6 18,0 17,5 7 4 15 8 N 1020,1 29 0 0,0
15.07.2019 03:00:00 11,3 9,7 9,2 14,5 18,2 17,5 6 3 15 8 NNE 1020,3 7 0 0,0
15.07.2019 02:00:00 12,8 10,2 11,7 15,4 18,3 17,5 11 6 21 11 N 1020,1 32 0 0,0
15.07.2019 01:00:00 14,0 10,3 13,7 15,8 18,5 17,5 13 7 23 12 N 1020,2 55 0 0,0
15.07.2019 00:00:00 14,9 11,3 14,4 16,2 18,6 17,5 9 5 16 9 N 1019,9 58 0 0,0
14.07.2019 23:00:00 15,1 11,1 14,7 16,6 18,7 17,5 9 5 19 10 N 1020,0 46 0 0,0
14.07.2019 22:00:00 15,4 11,7 15,1 17,1 18,8 17,5 12 7 22 12 N 1019,8 67 0 0,0
14.07.2019 21:00:00 15,7 12,0 15,5 17,7 18,9 17,5 11 6 16 9 NNW 1019,6 51 0 0,0
14.07.2019 20:00:00 16,2 11,2 16,2 18,5 18,8 17,5 8 5 16 8 N 1019,6 55 0 0,0
14.07.2019 19:00:00 16,8 11,1 18,0 19,1 18,8 17,5 8 5 16 8 NNW 1019,3 59 0 0,0
14.07.2019 18:00:00 16,9 10,6 18,3 19,5 18,7 17,5 10 5 18 10 NNE 1019,4 54 0 0,0
14.07.2019 17:00:00 16,9 11,0 18,6 19,6 18,5 17,5 11 6 18 10 N 1019,5 75 0 0,0
14.07.2019 16:00:00 16,7 10,5 18,3 20,7 18,3 17,5 9 5 22 12 NNE 1019,7 75 8 0,0
14.07.2019 15:00:00 16,5 9,9 19,5 19,4 18,2 17,5 11 6 21 11 N 1019,9 69 7 0,0
14.07.2019 14:00:00 15,9 10,6 18,7 18,4 18,1 17,5 8 5 19 11 NNE 1020,2 71 0 0,0
14.07.2019 13:00:00 15,3 10,7 17,9 17,4 18,1 17,5 10 5 19 11 NNW 1020,4 74 0 0,0
14.07.2019 12:00:00 14,2 9,8 15,4 17,4 18,1 17,5 10 5 16 9 N 1020,5 50 0 0,0
14.07.2019 11:00:00 14,2 9,0 16,0 16,8 18,1 17,5 9 5 16 9 N 1020,4 47 0 0,0
14.07.2019 10:00:00 13,8 9,2 15,4 16,1 18,2 17,5 8 4 17 9 N 1020,5 44 0 0,0
14.07.2019 09:00:00 13,3 8,7 13,9 15,6 18,3 17,5 10 5 18 10 N 1020,0 49 0 0,0
14.07.2019 08:00:00 13,0 9,6 13,5 15,4 18,5 17,5 9 5 17 9 NNE 1019,8 37 0 0,0
14.07.2019 07:00:00 12,9 9,8 13,0 15,2 18,6 17,5 10 5 17 9 NNW 1019,8 38 0 0,0
14.07.2019 06:00:00 12,9 10,6 12,8 15,5 18,8 17,5 11 6 20 11 NNW 1019,7 33 0 0,0
14.07.2019 05:00:00 13,0 11,1 12,9 15,7 19,0 17,5 6 3 13 7 NNW 1019,8 32 0 0,0
14.07.2019 04:00:00 13,0 11,7 13,0 15,9 19,1 17,5 9 5 17 9 N 1020,1 13 0 0,0
14.07.2019 03:00:00 13,5 11,7 13,5 16,2 19,3 17,5 10 5 18 10 N 1020,3 21 0 0,0
14.07.2019 02:00:00 14,2 11,7 14,0 16,5 19,5 17,5 10 5 19 10 NNW 1020,1 38 0 0,0
14.07.2019 01:00:00 14,4 11,8 14,2 16,9 19,7 17,5 11 6 27 15 N 1020,3 36 0 0,0
14.07.2019 00:00:00 15,2 13,7 15,2 17,5 19,8 17,5 13 7 19 11 NNW 1020,2 24 0 0,0
13.07.2019 23:00:00 15,5 13,8 15,2 18,1 19,9 17,5 9 5 20 11 N 1019,9 27 0 0,0
13.07.2019 22:00:00 15,9 14,2 15,8 18,5 20,0 17,5 5 3 13 7 NW 1019,5 29 0 0,0
13.07.2019 21:00:00 16,4 13,7 16,4 19,1 20,1 17,5 9 5 16 9 NW 1019,0 42 0 0,0

tt = Température de l'air
td = dewpoint
tt 5cm = Température de l'air 5cm
tt -5cm = Température de l'air -5cm
tt -20cm = Température de l'air -20cm
tt -100cm = Température de l'air -100cm
ff = Vitesse du vent
fx = gusts
dd = Direction du vent
ppp = reduced air pressure
vv = visibility
sd = Ensoleillement
rr = Quantités de précipitations

stations d'obs. à proximité